2021/09/19 23:36:41+0000,-42.67,-45.39,-32.57,-49.35,-50.00,-51.25
2021/09/19 23:37:33+0000,-42.88,-46.68,-32.24,-14.44,-50.12,-50.67
2021/09/19 23:38:25+0000,-42.45,-46.09,-33.14,-15.29,-49.58,-51.11
2021/09/19 23:39:17+0000,-42.38,-45.65,-32.64,-49.45,-50.08,-50.94
2021/09/19 23:40:10+0000,-42.39,-45.65,-32.64,-48.80,-50.61,-51.94
2021/09/19 23:41:09+0000,-42.00,-45.19,-32.45,-48.78,-50.37,-51.21
2021/09/19 23:42:01+0000,-42.26,-44.96,-32.31,-27.20,-50.42,-51.75
2021/09/19 23:42:53+0000,-42.36,-46.28,-32.29,-26.61,-50.20,-51.31
2021/09/19 23:43:45+0000,-42.75,-45.97,-32.40,-49.15,-50.80,-50.27
2021/09/19 23:44:37+0000,-42.92,-46.43,-32.52,-49.43,-50.04,-51.90
2021/09/19 23:45:29+0000,-43.37,-46.63,-32.56,-26.90,-49.77,-51.71
2021/09/19 23:46:21+0000,-40.95,-45.94,-33.23,-26.88,-50.49,-51.47
2021/09/19 23:47:13+0000,-41.85,-46.36,-32.85,-48.69,-50.91,-51.42
2021/09/19 23:48:05+0000,-42.23,-45.89,-32.38,-49.69,-50.18,-51.61
2021/09/19 23:48:57+0000,-42.37,-45.37,-32.74,-27.37,-50.12,-51.81
2021/09/19 23:49:50+0000,-42.63,-46.49,-32.54,-50.35,-49.97,-52.24
2021/09/19 23:50:42+0000,-42.04,-45.14,-32.62,-50.17,-50.03,-51.56
2021/09/19 23:51:43+0000,-42.58,-46.15,-32.83,-49.18,-50.19,-51.11
2021/09/19 23:52:35+0000,-42.29,-46.36,-32.74,-50.20,-50.46,-50.61
2021/09/19 23:53:27+0000,-42.26,-46.05,-32.81,-49.63,-50.13,-51.40
2021/09/19 23:54:19+0000,-42.85,-46.44,-33.12,-50.05,-50.39,-51.12
2021/09/19 23:55:11+0000,-41.53,-45.68,-32.37,-49.54,-49.84,-51.19
2021/09/19 23:56:03+0000,-41.46,-45.56,-32.67,-49.11,-50.12,-51.81
2021/09/19 23:56:55+0000,-41.53,-46.73,-32.73,-49.66,-50.14,-51.81
2021/09/19 23:57:47+0000,-41.60,-46.29,-32.54,-50.09,-50.55,-51.47
2021/09/19 23:58:39+0000,-41.95,-44.77,-32.64,-49.93,-50.41,-51.16
2021/09/19 23:59:31+0000,-41.77,-45.95,-32.30,-49.51,-49.94,-51.78
2021/09/20 00:00:23+0000,-41.01,-45.48,-32.93,-49.83,-49.75,-51.57
2021/09/20 00:01:28+0000,-41.30,-46.34,-31.79,-50.23,-50.08,-51.08
2021/09/20 00:02:20+0000,-41.42,-46.14,-32.34,-49.13,-50.06,-51.80
2021/09/20 00:03:12+0000,-41.08,-46.53,-32.35,-48.45,-50.49,-51.65
2021/09/20 00:04:04+0000,-41.00,-44.56,-32.32,-49.84,-50.10,-51.34
2021/09/20 00:04:56+0000,-41.86,-46.10,-32.38,-49.39,-50.12,-51.60
2021/09/20 00:05:48+0000,-41.76,-46.56,-32.19,-51.10,-50.00,-51.91
2021/09/20 00:06:40+0000,-41.67,-46.26,-31.90,-49.36,-50.24,-51.35
2021/09/20 00:07:33+0000,-41.67,-47.65,-32.70,-37.15,-50.09,-52.09
2021/09/20 00:08:25+0000,-41.44,-48.52,-32.07,-26.79,-50.72,-52.12
2021/09/20 00:09:17+0000,-41.01,-47.96,-32.14,-50.50,-50.32,-51.21
2021/09/20 00:10:09+0000,-40.50,-47.32,-31.97,-50.24,-50.05,-51.44
2021/09/20 00:11:14+0000,-40.53,-47.18,-31.88,-49.72,-50.09,-51.62
2021/09/20 00:12:06+0000,-41.60,-48.00,-32.20,-50.00,-50.27,-51.56
2021/09/20 00:12:58+0000,-41.33,-48.06,-32.95,-26.90,-50.87,-51.81
2021/09/20 00:13:50+0000,-42.14,-47.93,-32.56,-26.70,-50.12,-51.73
2021/09/20 00:14:42+0000,-41.10,-47.60,-32.39,-49.45,-48.84,-52.02
2021/09/20 00:15:34+0000,-41.52,-48.16,-32.05,-51.23,-50.50,-51.55
2021/09/20 00:16:26+0000,-41.96,-48.31,-32.47,-50.18,-50.07,-51.29
2021/09/20 00:17:18+0000,-42.08,-48.46,-32.17,-51.67,-50.76,-51.47
2021/09/20 00:18:10+0000,-41.60,-47.25,-32.36,-49.76,-50.68,-51.63
2021/09/20 00:19:02+0000,-41.56,-48.63,-32.56,-49.96,-50.60,-51.64
2021/09/20 00:19:55+0000,-41.26,-48.63,-32.87,-47.85,-50.17,-52.36
2021/09/20 00:20:47+0000,-41.45,-48.63,-32.38,-49.61,-50.43,-51.42
2021/09/20 00:21:48+0000,-41.42,-48.44,-31.93,-49.27,-50.76,-51.15
2021/09/20 00:22:40+0000,-41.19,-48.35,-31.96,-48.90,-50.70,-52.10
2021/09/20 00:23:32+0000,-41.35,-48.29,-32.13,-49.40,-50.51,-51.65
2021/09/20 00:24:24+0000,-40.10,-47.99,-32.77,-48.52,-49.80,-51.81
2021/09/20 00:25:16+0000,-40.53,-48.65,-31.93,-49.27,-49.95,-51.72
2021/09/20 00:26:08+0000,-40.55,-47.95,-31.88,-50.39,-49.82,-51.60
2021/09/20 00:27:00+0000,-41.27,-47.09,-31.77,-48.78,-49.98,-51.93
2021/09/20 00:27:52+0000,-40.97,-48.17,-31.79,-47.16,-49.73,-51.52
2021/09/20 00:28:44+0000,-40.89,-47.22,-32.41,-49.96,-49.55,-51.15
2021/09/20 00:29:36+0000,-41.49,-47.66,-33.03,-49.54,-49.90,-51.72
2021/09/20 00:30:28+0000,-41.25,-48.82,-32.44,-48.92,-50.26,-51.72
2021/09/20 00:31:29+0000,-41.58,-47.82,-31.99,-48.87,-49.87,-51.58
2021/09/20 00:32:21+0000,-41.20,-48.00,-33.12,-48.24,-50.03,-51.66
2021/09/20 00:33:13+0000,-41.61,-48.15,-33.12,-49.85,-49.99,-51.72
2021/09/20 00:34:05+0000,-41.52,-48.23,-32.00,-50.54,-50.51,-51.48
2021/09/20 00:34:57+0000,-41.62,-48.40,-32.69,-48.54,-50.56,-51.05
2021/09/20 00:35:49+0000,-41.10,-48.05,-32.22,-50.68,-49.97,-51.05
2021/09/20 00:36:41+0000,-40.52,-46.88,-32.63,-49.43,-49.95,-52.12
2021/09/20 00:37:33+0000,-41.50,-47.90,-32.08,-50.48,-50.31,-51.41
2021/09/20 00:38:25+0000,-41.56,-48.18,-32.10,-48.61,-50.55,-51.83
2021/09/20 00:39:17+0000,-41.87,-46.78,-31.68,-49.55,-49.76,-51.14
2021/09/20 00:40:09+0000,-41.51,-47.65,-32.18,-50.06,-50.12,-52.17
2021/09/20 00:41:07+0000,-41.84,-48.60,-32.32,-48.69,-50.96,-51.64
2021/09/20 00:41:59+0000,-41.92,-44.84,-32.01,-48.41,-50.92,-52.42
2021/09/20 00:42:51+0000,-42.25,-48.12,-32.31,-47.85,-50.77,-51.67
2021/09/20 00:43:43+0000,-41.12,-46.99,-32.24,-47.94,-50.79,-51.54
2021/09/20 00:44:35+0000,-41.32,-45.73,-32.93,-50.40,-50.50,-51.60
2021/09/20 00:45:28+0000,-41.48,-45.31,-32.51,-47.88,-50.91,-51.59
2021/09/20 00:46:20+0000,-41.58,-47.37,-32.68,-51.28,-50.43,-51.38
2021/09/20 00:47:12+0000,-41.60,-47.67,-33.22,-49.52,-50.24,-50.87
2021/09/20 00:48:04+0000,-39.95,-45.44,-33.40,-49.51,-50.07,-51.42
2021/09/20 00:48:56+0000,-41.16,-44.84,-33.14,-48.83,-50.73,-51.63
2021/09/20 00:49:48+0000,-40.89,-47.95,-32.73,-49.91,-50.41,-51.77
2021/09/20 00:50:40+0000,-40.94,-47.64,-33.26,-48.74,-50.00,-51.72
2021/09/20 00:51:45+0000,-41.10,-47.01,-33.26,-48.63,-50.71,-51.42
2021/09/20 00:52:37+0000,-40.70,-48.72,-33.25,-49.42,-50.77,-51.74
2021/09/20 00:53:29+0000,-40.95,-48.05,-32.87,-48.86,-50.80,-51.05
2021/09/20 00:54:21+0000,-41.61,-47.79,-33.10,-50.61,-50.62,-51.91
2021/09/20 00:55:13+0000,-41.48,-48.62,-33.34,-48.27,-50.39,-51.59
2021/09/20 00:56:05+0000,-41.14,-48.19,-33.26,-50.55,-50.80,-51.41
2021/09/20 00:56:57+0000,-41.70,-47.82,-32.98,-49.15,-50.04,-51.71
2021/09/20 00:57:49+0000,-41.28,-47.83,-32.78,-50.86,-50.20,-51.67
2021/09/20 00:58:41+0000,-41.69,-48.16,-33.09,-48.13,-50.00,-51.78
2021/09/20 00:59:33+0000,-41.78,-47.18,-32.56,-48.56,-50.09,-51.60
2021/09/20 01:00:25+0000,-41.47,-47.43,-33.59,-47.54,-50.66,-51.80
2021/09/20 01:01:52+0000,-41.30,-49.33,-33.18,-48.61,-50.05,-51.40
2021/09/20 01:02:44+0000,-41.04,-47.96,-32.36,-48.95,-50.24,-51.53
2021/09/20 01:03:36+0000,-41.69,-47.37,-32.80,-48.19,-50.61,-51.08
2021/09/20 01:04:28+0000,-41.15,-47.88,-32.36,-48.06,-50.45,-51.26
2021/09/20 01:05:20+0000,-40.85,-47.62,-32.27,-49.09,-50.30,-51.01
2021/09/20 01:06:12+0000,-40.70,-46.93,-33.04,-49.47,-50.06,-51.21
2021/09/20 01:07:04+0000,-41.31,-46.98,-33.15,-50.27,-50.06,-51.56
2021/09/20 01:07:56+0000,-41.54,-46.46,-33.31,-48.32,-50.27,-50.47
2021/09/20 01:08:48+0000,-41.97,-46.92,-33.06,-49.86,-50.17,-51.25
2021/09/20 01:09:40+0000,-41.81,-47.45,-32.83,-49.60,-50.24,-51.11
2021/09/20 01:10:32+0000,-41.97,-46.60,-32.86,-50.00,-49.89,-51.21
2021/09/20 01:11:54+0000,-41.75,-46.11,-32.86,-48.70,-50.50,-50.95
2021/09/20 01:12:46+0000,-40.32,-47.08,-32.48,-49.11,-50.08,-51.06
2021/09/20 01:13:38+0000,-41.11,-47.30,-33.02,-48.14,-50.07,-51.28
2021/09/20 01:14:30+0000,-42.07,-47.26,-32.80,-47.69,-50.50,-51.08
2021/09/20 01:15:22+0000,-42.08,-48.37,-32.53,-48.57,-50.01,-50.94
2021/09/20 01:16:14+0000,-41.71,-46.72,-33.10,-49.29,-50.11,-51.06
2021/09/20 01:17:06+0000,-41.35,-48.19,-32.53,-48.84,-50.16,-51.78
2021/09/20 01:17:58+0000,-40.03,-47.20,-32.95,-48.37,-50.01,-51.70
2021/09/20 01:18:50+0000,-40.99,-47.81,-31.95,-48.60,-50.92,-51.25
2021/09/20 01:19:42+0000,-41.88,-46.37,-32.73,-47.75,-50.36,-51.42
2021/09/20 01:20:34+0000,-41.96,-47.63,-32.26,-50.57,-50.30,-51.33
2021/09/20 01:22:00+0000,-41.48,-48.23,-32.47,-48.61,-50.29,-51.38
2021/09/20 01:22:52+0000,-41.09,-48.90,-31.61,-49.84,-50.27,-50.91
2021/09/20 01:23:44+0000,-40.48,-46.73,-32.16,-50.01,-50.11,-51.14
2021/09/20 01:24:36+0000,-41.73,-49.37,-32.04,-49.36,-49.40,-51.32
2021/09/20 01:25:28+0000,-42.24,-47.88,-32.13,-48.81,-50.47,-51.29
2021/09/20 01:26:20+0000,-41.74,-48.70,-32.20,-49.32,-50.41,-51.84
2021/09/20 01:27:12+0000,-42.19,-47.41,-32.16,-48.85,-50.08,-51.35
2021/09/20 01:28:04+0000,-41.68,-47.34,-32.52,-50.30,-50.38,-50.80
2021/09/20 01:28:56+0000,-41.40,-47.29,-32.26,-49.24,-50.16,-51.55
2021/09/20 01:29:48+0000,-41.86,-46.79,-32.31,-50.63,-50.38,-51.44
2021/09/20 01:30:41+0000,-38.22,-47.20,-31.92,-49.62,-49.67,-51.25
2021/09/20 01:32:06+0000,-40.85,-48.85,-32.37,-48.53,-49.83,-51.82
2021/09/20 01:32:58+0000,-41.31,-46.98,-33.05,-48.66,-50.60,-51.27
2021/09/20 01:33:50+0000,-41.99,-48.44,-32.35,-50.46,-49.83,-51.22
2021/09/20 01:34:42+0000,-39.88,-44.86,-32.25,-49.94,-49.79,-51.42
2021/09/20 01:35:34+0000,-41.67,-45.10,-32.72,-50.46,-50.03,-51.24
2021/09/20 01:36:27+0000,-38.53,-45.08,-32.96,-48.90,-50.52,-50.91
2021/09/20 01:37:19+0000,-41.01,-44.40,-33.00,-50.01,-50.34,-51.59
2021/09/20 01:38:11+0000,-41.85,-41.16,-33.20,-50.42,-50.13,-51.17
2021/09/20 01:39:03+0000,-40.94,-45.30,-32.57,-49.22,-49.79,-51.47
2021/09/20 01:39:55+0000,-39.94,-45.31,-32.18,-48.95,-49.86,-51.27
2021/09/20 01:40:47+0000,-42.12,-44.95,-32.80,-49.12,-49.88,-51.77
2021/09/20 01:42:13+0000,-41.51,-44.77,-33.22,-49.44,-50.31,-51.35
2021/09/20 01:43:05+0000,-41.64,-46.30,-32.95,-50.24,-50.27,-51.68
2021/09/20 01:43:57+0000,-40.75,-45.74,-32.95,-48.20,-49.16,-51.66
2021/09/20 01:44:49+0000,-40.51,-45.79,-32.80,-50.26,-49.66,-51.00
2021/09/20 01:45:41+0000,-41.25,-45.34,-33.14,-49.00,-49.97,-51.33
2021/09/20 01:46:33+0000,-41.09,-44.91,-33.25,-46.56,-50.19,-51.21
2021/09/20 01:47:25+0000,-40.91,-44.56,-32.57,-49.33,-50.27,-51.64
2021/09/20 01:48:17+0000,-41.56,-45.72,-33.11,-48.75,-49.52,-51.23
2021/09/20 01:49:09+0000,-40.40,-45.68,-32.62,-48.93,-49.79,-51.16
2021/09/20 01:50:01+0000,-41.03,-45.42,-33.60,-49.09,-50.17,-51.44
2021/09/20 01:51:06+0000,-41.74,-44.58,-32.69,-50.13,-50.49,-51.32
2021/09/20 01:51:58+0000,-40.12,-44.69,-32.59,-48.79,-50.44,-51.06
2021/09/20 01:52:50+0000,-39.15,-44.77,-32.71,-50.62,-50.11,-50.97
2021/09/20 01:53:42+0000,-41.43,-44.49,-32.85,-49.23,-49.60,-51.33
2021/09/20 01:54:34+0000,-41.16,-45.05,-32.74,-49.61,-50.68,-51.89
2021/09/20 01:55:26+0000,-40.64,-46.88,-32.40,-48.73,-50.12,-51.73
2021/09/20 01:56:18+0000,-41.16,-44.18,-32.84,-50.46,-50.38,-51.38
2021/09/20 01:57:10+0000,-40.43,-44.72,-32.97,-49.13,-50.03,-51.42
2021/09/20 01:58:02+0000,-41.71,-46.80,-32.84,-49.14,-49.40,-51.69
2021/09/20 01:58:54+0000,-41.60,-45.48,-32.80,-47.95,-50.31,-51.30
2021/09/20 01:59:46+0000,-41.27,-45.00,-32.86,-49.44,-50.58,-51.76
2021/09/20 02:00:38+0000,-41.16,-46.21,-32.74,-50.36,-49.83,-51.08
2021/09/20 02:01:51+0000,-41.24,-46.56,-33.63,-48.55,-50.69,-51.33
2021/09/20 02:02:43+0000,-39.40,-45.18,-32.88,-49.26,-50.31,-51.64
2021/09/20 02:03:35+0000,-40.14,-47.26,-32.66,-49.26,-50.56,-51.44
2021/09/20 02:04:27+0000,-41.59,-45.37,-32.51,-49.39,-50.42,-51.70
2021/09/20 02:05:19+0000,-41.21,-46.71,-32.66,-50.10,-50.13,-51.95
2021/09/20 02:06:12+0000,-41.06,-44.45,-33.23,-49.25,-50.48,-51.47
2021/09/20 02:07:04+0000,-42.01,-44.52,-33.39,-50.78,-50.51,-51.45
2021/09/20 02:07:56+0000,-41.22,-46.24,-33.10,-49.94,-50.42,-51.00
2021/09/20 02:08:48+0000,-40.85,-44.87,-32.81,-50.14,-50.72,-51.33
2021/09/20 02:09:40+0000,-38.83,-45.60,-32.97,-49.26,-50.14,-51.47
2021/09/20 02:10:32+0000,-41.02,-46.04,-33.25,-49.72,-50.48,-51.30
2021/09/20 02:11:31+0000,-41.30,-46.10,-33.05,-49.85,-50.26,-51.51
2021/09/20 02:12:23+0000,-38.89,-45.12,-33.25,-48.99,-49.95,-51.72
2021/09/20 02:13:16+0000,-40.87,-44.46,-32.61,-50.79,-50.38,-50.91
2021/09/20 02:14:08+0000,-41.76,-45.27,-32.59,-49.94,-50.44,-51.25
2021/09/20 02:15:00+0000,-41.67,-46.04,-32.25,-49.26,-50.54,-52.03
2021/09/20 02:15:52+0000,-39.95,-47.42,-32.39,-49.14,-50.88,-51.87
2021/09/20 02:16:44+0000,-41.40,-45.20,-32.53,-49.75,-50.33,-51.49
2021/09/20 02:17:36+0000,-41.67,-47.03,-32.52,-48.93,-49.84,-51.18
2021/09/20 02:18:28+0000,-40.92,-45.34,-32.18,-49.61,-49.75,-51.06
2021/09/20 02:19:20+0000,-40.97,-45.11,-33.16,-50.19,-50.49,-51.83
2021/09/20 02:20:12+0000,-40.97,-45.10,-32.51,-50.24,-50.50,-51.48
2021/09/20 02:21:16+0000,-41.57,-45.15,-32.31,-49.20,-50.54,-51.17
2021/09/20 02:22:08+0000,-40.71,-46.66,-32.70,-49.69,-50.26,-50.83
2021/09/20 02:23:00+0000,-41.80,-45.86,-33.09,-49.43,-50.17,-51.09
2021/09/20 02:23:52+0000,-41.07,-45.84,-33.38,-49.66,-50.68,-51.35
2021/09/20 02:24:44+0000,-41.80,-45.82,-33.36,-49.42,-49.56,-50.98
2021/09/20 02:25:36+0000,-41.46,-47.50,-33.30,-49.51,-49.59,-51.08
2021/09/20 02:26:29+0000,-39.27,-44.32,-32.48,-49.12,-49.34,-50.56
2021/09/20 02:27:21+0000,-40.77,-45.27,-32.48,-48.65,-50.08,-50.18
2021/09/20 02:28:13+0000,-38.19,-43.65,-33.29,-49.60,-49.77,-50.87
2021/09/20 02:29:05+0000,-37.45,-44.24,-33.84,-50.26,-49.98,-51.00
2021/09/20 02:29:57+0000,-39.12,-45.19,-33.16,-49.29,-49.64,-51.13
2021/09/20 02:30:49+0000,-41.30,-45.15,-32.64,-49.36,-49.17,-51.27
2021/09/20 02:31:51+0000,-40.27,-45.49,-33.26,-49.76,-50.03,-51.58
2021/09/20 02:32:43+0000,-36.53,-44.67,-32.65,-50.36,-49.63,-50.81
2021/09/20 02:33:35+0000,-37.19,-45.24,-32.75,-50.16,-50.19,-51.27
2021/09/20 02:34:27+0000,-40.42,-44.16,-32.83,-49.14,-49.34,-51.24
2021/09/20 02:35:19+0000,-39.08,-44.53,-32.73,-50.17,-50.02,-51.12
2021/09/20 02:36:11+0000,-38.51,-45.27,-32.65,-49.85,-50.14,-51.76
2021/09/20 02:37:03+0000,-37.10,-44.87,-32.97,-49.07,-50.04,-51.41
2021/09/20 02:37:55+0000,-39.74,-45.71,-33.62,-49.36,-49.92,-51.84
2021/09/20 02:38:47+0000,-40.70,-44.79,-32.45,-49.43,-50.00,-51.06
2021/09/20 02:39:39+0000,-37.37,-44.93,-33.79,-50.02,-49.45,-50.79
2021/09/20 02:40:31+0000,-41.46,-45.17,-32.76,-49.30,-50.23,-50.97
2021/09/20 02:41:33+0000,-36.11,-44.80,-33.28,-49.36,-49.57,-50.93
2021/09/20 02:42:25+0000,-40.23,-44.00,-33.35,-49.85,-49.34,-51.23
2021/09/20 02:43:17+0000,-39.28,-44.25,-33.15,-43.72,-49.61,-50.59
2021/09/20 02:44:09+0000,-35.54,-45.38,-33.38,-43.04,-49.29,-51.78
2021/09/20 02:45:01+0000,-39.95,-45.12,-33.04,-43.24,-49.49,-51.37
2021/09/20 02:45:53+0000,-39.77,-45.18,-32.39,-41.78,-49.76,-50.95
2021/09/20 02:46:45+0000,-39.44,-44.71,-33.35,-43.60,-50.43,-51.20
2021/09/20 02:47:37+0000,-35.05,-45.91,-33.11,-42.85,-50.19,-51.13
2021/09/20 02:48:29+0000,-39.37,-44.63,-33.44,-42.65,-49.61,-50.67
2021/09/20 02:49:21+0000,-39.94,-45.88,-32.94,-43.58,-49.65,-51.26
2021/09/20 02:50:14+0000,-35.70,-44.48,-33.32,-42.92,-50.12,-50.99
2021/09/20 02:51:20+0000,-38.38,-43.32,-33.03,-42.95,-50.11,-51.27
2021/09/20 02:52:12+0000,-35.13,-43.74,-32.94,-41.82,-50.31,-51.23
2021/09/20 02:53:04+0000,-36.01,-44.00,-32.67,-42.93,-49.74,-50.52
2021/09/20 02:53:56+0000,-39.06,-43.97,-32.70,-42.25,-49.83,-51.04
2021/09/20 02:54:48+0000,-38.65,-44.43,-32.83,-42.18,-50.07,-51.00
2021/09/20 02:55:40+0000,-36.82,-44.92,-32.82,-43.36,-50.37,-51.34
2021/09/20 02:56:32+0000,-37.83,-44.73,-33.36,-43.01,-50.14,-51.00
2021/09/20 02:57:24+0000,-38.42,-44.44,-32.67,-42.76,-49.81,-51.07
2021/09/20 02:58:16+0000,-39.56,-44.33,-33.01,-42.09,-49.87,-50.80
2021/09/20 02:59:08+0000,-35.17,-46.65,-32.96,-41.45,-49.89,-51.05
2021/09/20 03:00:00+0000,-39.36,-44.58,-32.97,-49.41,-50.47,-51.54
2021/09/20 03:01:06+0000,-36.02,-45.90,-32.28,-49.95,-50.03,-51.21
2021/09/20 03:01:58+0000,-41.35,-45.85,-32.97,-49.93,-49.96,-50.45
2021/09/20 03:02:50+0000,-38.69,-46.92,-32.90,-50.45,-50.24,-50.98
2021/09/20 03:03:42+0000,-36.45,-45.08,-33.13,-49.77,-49.46,-50.79
2021/09/20 03:04:35+0000,-35.25,-48.43,-32.47,-49.81,-49.35,-51.10
2021/09/20 03:05:27+0000,-39.45,-45.78,-33.21,-50.03,-49.74,-50.62
2021/09/20 03:06:19+0000,-37.36,-45.17,-33.54,-50.52,-49.66,-50.92
2021/09/20 03:07:11+0000,-34.59,-45.21,-33.03,-50.07,-50.21,-51.28
2021/09/20 03:08:03+0000,-41.05,-46.93,-33.78,-49.33,-49.79,-51.67
2021/09/20 03:08:55+0000,-40.13,-46.28,-33.36,-49.52,-50.45,-51.00
2021/09/20 03:09:47+0000,-40.59,-44.89,-33.05,-50.12,-50.00,-50.27
2021/09/20 03:10:39+0000,-39.42,-45.83,-33.56,-49.54,-49.14,-50.87
2021/09/20 03:11:39+0000,-40.00,-46.73,-33.74,-49.71,-49.00,-51.08
2021/09/20 03:12:32+0000,-35.56,-45.17,-33.48,-49.96,-49.91,-50.55
2021/09/20 03:13:24+0000,-40.73,-45.86,-33.95,-50.06,-49.62,-50.97
2021/09/20 03:14:16+0000,-38.74,-47.22,-33.00,-49.80,-49.66,-51.45
2021/09/20 03:15:08+0000,-35.46,-47.71,-33.53,-49.77,-49.88,-51.10
2021/09/20 03:16:00+0000,-41.23,-45.44,-32.99,-49.63,-49.47,-51.22
2021/09/20 03:16:52+0000,-38.94,-47.78,-33.45,-49.56,-49.58,-51.56
2021/09/20 03:17:44+0000,-41.11,-46.35,-32.86,-49.98,-50.45,-51.20
2021/09/20 03:18:36+0000,-40.47,-48.33,-33.21,-50.38,-49.82,-51.01
2021/09/20 03:19:28+0000,-38.75,-46.17,-33.31,-49.43,-49.80,-51.30
2021/09/20 03:20:20+0000,-38.34,-48.42,-33.01,-50.04,-49.46,-50.77
2021/09/20 03:21:21+0000,-39.19,-48.38,-33.06,-50.32,-49.55,-51.12
2021/09/20 03:22:13+0000,-37.46,-45.80,-33.21,-50.04,-49.55,-50.13
2021/09/20 03:23:05+0000,-39.60,-48.43,-33.20,-49.91,-50.26,-51.47
2021/09/20 03:23:57+0000,-38.60,-46.45,-34.11,-49.81,-49.69,-50.92
2021/09/20 03:24:49+0000,-39.00,-45.79,-33.52,-49.71,-49.91,-51.34
2021/09/20 03:25:41+0000,-38.40,-44.89,-32.71,-50.08,-50.42,-50.86
2021/09/20 03:26:33+0000,-40.27,-45.05,-32.79,-49.70,-49.81,-51.40
2021/09/20 03:27:25+0000,-39.36,-45.16,-32.77,-49.48,-49.47,-51.41
2021/09/20 03:28:17+0000,-39.87,-46.87,-33.02,-49.84,-50.10,-51.10
2021/09/20 03:29:09+0000,-39.50,-46.55,-33.15,-50.53,-50.41,-51.51
2021/09/20 03:30:02+0000,-38.80,-45.31,-33.28,-49.99,-49.85,-51.11
2021/09/20 03:31:04+0000,-38.69,-43.17,-32.00,-50.17,-50.04,-51.43
2021/09/20 03:31:56+0000,-37.43,-43.08,-32.86,-49.76,-49.83,-51.24
2021/09/20 03:32:48+0000,-40.16,-45.14,-33.24,-49.57,-50.22,-51.59
2021/09/20 03:33:40+0000,-39.80,-43.56,-33.09,-50.12,-49.86,-51.35
2021/09/20 03:34:32+0000,-40.09,-44.31,-32.76,-50.17,-49.13,-50.84
2021/09/20 03:35:24+0000,-40.67,-45.09,-32.57,-49.86,-50.81,-51.43
2021/09/20 03:36:16+0000,-40.64,-44.74,-32.92,-50.53,-50.17,-51.46
2021/09/20 03:37:08+0000,-39.19,-45.06,-32.97,-49.96,-49.84,-51.04
2021/09/20 03:38:00+0000,-40.72,-44.74,-32.84,-49.59,-50.25,-50.79
2021/09/20 03:38:52+0000,-38.91,-44.83,-32.39,-49.83,-50.54,-50.69
2021/09/20 03:39:44+0000,-40.42,-45.51,-32.36,-50.43,-50.40,-51.39
2021/09/20 03:40:36+0000,-38.09,-45.31,-32.86,-49.92,-50.39,-50.81
2021/09/20 03:41:37+0000,-39.81,-45.66,-32.26,-49.79,-49.94,-50.95
2021/09/20 03:42:29+0000,-41.17,-44.86,-32.40,-49.96,-50.42,-51.55
2021/09/20 03:43:22+0000,-39.85,-45.07,-33.44,-49.24,-49.93,-50.83
2021/09/20 03:44:14+0000,-40.50,-44.58,-32.28,-49.77,-50.43,-51.11
2021/09/20 03:45:06+0000,-39.39,-45.40,-32.31,-50.05,-50.59,-50.85
2021/09/20 03:45:58+0000,-39.23,-44.23,-33.04,-49.38,-49.81,-50.94
2021/09/20 03:46:50+0000,-40.90,-44.36,-32.07,-49.45,-50.75,-51.41
2021/09/20 03:47:42+0000,-38.95,-44.86,-32.94,-49.75,-50.00,-51.02
2021/09/20 03:48:34+0000,-39.78,-44.50,-33.00,-49.78,-49.69,-51.42
2021/09/20 03:49:26+0000,-39.40,-45.13,-32.63,-49.09,-49.87,-51.44
2021/09/20 03:50:18+0000,-41.18,-44.00,-32.75,-48.56,-50.08,-50.74
2021/09/20 03:51:19+0000,-38.94,-42.73,-34.21,-49.54,-49.87,-50.79
2021/09/20 03:52:11+0000,-36.72,-43.68,-33.29,-49.79,-49.63,-51.08
2021/09/20 03:53:03+0000,-39.37,-45.64,-33.99,-50.24,-50.03,-51.43
2021/09/20 03:53:55+0000,-36.58,-45.42,-33.09,-50.92,-49.88,-51.97
2021/09/20 03:54:47+0000,-38.98,-43.54,-33.51,-49.94,-50.09,-51.68
2021/09/20 03:55:39+0000,-38.98,-45.23,-33.34,-50.70,-50.18,-51.78
2021/09/20 03:56:31+0000,-38.86,-46.64,-34.01,-50.39,-50.25,-51.19
2021/09/20 03:57:23+0000,-41.07,-45.81,-33.07,-50.15,-50.24,-50.93
2021/09/20 03:58:15+0000,-40.93,-45.65,-33.16,-50.39,-50.44,-52.00
2021/09/20 03:59:07+0000,-34.63,-46.38,-33.26,-50.04,-50.13,-51.73
2021/09/20 03:59:59+0000,-39.47,-45.83,-33.05,-50.00,-49.83,-51.51
2021/09/20 04:00:51+0000,-40.20,-45.38,-33.22,-50.62,-49.70,-51.23
2021/09/20 04:01:54+0000,-40.47,-45.99,-32.71,-50.21,-50.07,-51.89
2021/09/20 04:02:46+0000,-40.21,-46.14,-33.19,-49.97,-50.00,-51.14
2021/09/20 04:03:38+0000,-34.11,-46.53,-32.56,-50.35,-50.20,-51.66
2021/09/20 04:04:30+0000,-41.62,-45.80,-32.97,-50.67,-50.50,-51.91
2021/09/20 04:05:22+0000,-40.33,-46.29,-32.88,-50.36,-50.26,-51.32
2021/09/20 04:06:14+0000,-41.41,-45.84,-32.46,-50.18,-50.19,-51.51
2021/09/20 04:07:06+0000,-38.31,-47.56,-32.83,-50.04,-50.50,-50.96
2021/09/20 04:07:58+0000,-41.54,-44.74,-32.87,-49.98,-50.49,-51.66
2021/09/20 04:08:50+0000,-37.63,-47.58,-32.53,-50.21,-50.20,-51.37
2021/09/20 04:09:42+0000,-37.24,-46.99,-32.98,-49.85,-49.94,-51.33
2021/09/20 04:10:35+0000,-40.25,-47.46,-32.76,-50.67,-50.21,-51.74
2021/09/20 04:11:35+0000,-38.37,-47.71,-32.86,-50.57,-50.94,-51.62
2021/09/20 04:12:27+0000,-39.69,-45.05,-32.91,-49.90,-50.33,-51.64
2021/09/20 04:13:19+0000,-40.36,-46.41,-33.28,-50.52,-50.56,-51.46
2021/09/20 04:14:11+0000,-38.36,-45.08,-33.63,-49.74,-49.64,-51.14
2021/09/20 04:15:03+0000,-39.08,-45.90,-33.55,-50.63,-50.25,-51.32
2021/09/20 04:15:55+0000,-41.02,-45.87,-33.36,-50.16,-50.17,-51.09
2021/09/20 04:16:47+0000,-41.31,-45.51,-33.40,-49.85,-49.64,-51.22
2021/09/20 04:17:39+0000,-39.83,-45.43,-33.56,-49.53,-50.12,-50.82
2021/09/20 04:18:31+0000,-38.89,-44.64,-33.08,-49.77,-50.54,-51.14
2021/09/20 04:19:23+0000,-40.96,-44.08,-32.42,-50.96,-50.13,-51.00
2021/09/20 04:20:16+0000,-41.96,-46.10,-32.47,-50.08,-50.06,-51.45
2021/09/20 04:21:16+0000,-38.57,-44.52,-32.44,-50.61,-50.37,-51.37
2021/09/20 04:22:08+0000,-33.46,-45.42,-32.84,-50.61,-50.23,-51.91
2021/09/20 04:23:00+0000,-40.42,-45.43,-32.00,-50.93,-49.98,-51.99
2021/09/20 04:23:52+0000,-39.33,-44.92,-32.81,-50.66,-50.86,-51.95
2021/09/20 04:24:44+0000,-40.35,-44.99,-32.89,-50.09,-50.04,-51.57
2021/09/20 04:25:37+0000,-36.60,-45.50,-32.25,-50.51,-50.43,-51.65
2021/09/20 04:26:29+0000,-41.84,-45.40,-32.44,-50.37,-49.96,-51.73
2021/09/20 04:27:21+0000,-41.42,-44.91,-32.41,-50.58,-50.42,-51.46
2021/09/20 04:28:13+0000,-40.22,-45.98,-32.88,-50.30,-49.98,-51.11
2021/09/20 04:29:05+0000,-40.38,-45.00,-32.30,-50.56,-50.46,-51.64
2021/09/20 04:29:57+0000,-40.72,-44.87,-32.87,-50.50,-50.54,-51.63
2021/09/20 04:30:49+0000,-40.80,-44.41,-32.79,-50.50,-49.59,-51.42
2021/09/20 04:31:50+0000,-41.23,-45.80,-32.27,-50.51,-49.89,-51.89
2021/09/20 04:32:42+0000,-40.65,-45.88,-32.87,-50.08,-50.69,-51.34
2021/09/20 04:33:34+0000,-38.76,-45.00,-32.41,-50.73,-50.65,-51.92
2021/09/20 04:34:26+0000,-39.84,-46.53,-32.52,-50.36,-50.55,-51.42
2021/09/20 04:35:18+0000,-41.54,-47.08,-32.64,-50.63,-50.06,-52.15
2021/09/20 04:36:10+0000,-41.88,-47.16,-32.83,-50.95,-50.41,-50.70
2021/09/20 04:37:02+0000,-40.54,-48.19,-32.17,-50.36,-49.92,-51.53
2021/09/20 04:37:54+0000,-40.97,-47.16,-32.81,-50.71,-50.60,-51.47
2021/09/20 04:38:46+0000,-40.20,-46.31,-32.78,-50.51,-50.37,-51.39
2021/09/20 04:39:38+0000,-37.19,-46.68,-32.49,-50.53,-49.91,-51.57
2021/09/20 04:40:31+0000,-41.54,-47.70,-32.73,-49.42,-50.21,-51.66
2021/09/20 04:41:31+0000,-40.57,-46.87,-33.06,-50.08,-50.60,-51.01
2021/09/20 04:42:23+0000,-40.55,-47.62,-33.15,-51.09,-49.88,-50.91
2021/09/20 04:43:15+0000,-39.55,-46.58,-33.73,-50.43,-49.83,-51.49
2021/09/20 04:44:07+0000,-39.50,-46.13,-32.79,-51.63,-50.09,-51.06
2021/09/20 04:44:59+0000,-41.07,-47.58,-32.80,-50.92,-50.27,-51.24
2021/09/20 04:45:51+0000,-41.81,-47.67,-33.84,-51.08,-49.71,-52.22
2021/09/20 04:46:44+0000,-40.92,-47.10,-32.58,-51.10,-50.38,-51.21
2021/09/20 04:47:36+0000,-39.06,-47.96,-32.76,-50.83,-50.16,-51.19
2021/09/20 04:48:28+0000,-40.74,-47.66,-33.19,-50.39,-50.66,-51.58
2021/09/20 04:49:20+0000,-40.99,-46.70,-32.59,-51.48,-49.81,-51.57
2021/09/20 04:50:12+0000,-39.02,-47.12,-32.97,-50.79,-49.35,-50.86
2021/09/20 04:51:13+0000,-40.63,-46.94,-32.93,-50.90,-49.65,-52.15
2021/09/20 04:52:05+0000,-40.54,-46.63,-33.23,-51.06,-50.55,-51.71
2021/09/20 04:52:57+0000,-41.30,-46.73,-33.10,-51.13,-50.68,-51.85
2021/09/20 04:53:49+0000,-41.25,-46.59,-32.66,-51.56,-49.95,-52.18